Perth, Australia

1:32 PM AWST on March 24, 2017 (GMT +0800)
Perth International

Weather History for YPPH - April, 2013

Change the Weather History Date:

Wednesday, April 10, 2013

  Actual Average Record
Temperature  
Mean Temperature 80 °F -  
Max Temperature 97 °F 75 °F 97 °F (2013)
Min Temperature 63 °F 54 °F 42 °F (2006)
Cooling Degree Days 15    
Growing Degree Days 30 (Base 50)    
Moisture  
Dew Point 58 °F    
Average Humidity 53    
Maximum Humidity 88    
Minimum Humidity 9    
Precipitation  
Precipitation 0.00 in 0.09 in - ()
Sea Level Pressure  
Sea Level Pressure 29.93 in    
Wind  
Wind Speed 6 mph ()    
Max Wind Speed 15 mph    
Max Gust Speed -    
Visibility 13.9 miles    
Events      
Averages and records for this station are not official NWS values.
T = Trace of Precipitation, MM = Missing Value Source: Averaged Metar Reports

Daily Weather History Graph

Daily Weather History Graph

Search for Another Location

Airport or City:

Trip Planner

Search our weather history database for the weather conditions in past years. The results will help you decide how hot, cold, wet, or windy it might be!

Date:

Astronomy

Apr. 10, 2013 Rise Set
Actual Time 6:33 AM AWST 6:01 PM AWST
Civil Twilight 6:08 AM AWST 6:25 PM AWST
Nautical Twilight 5:40 AM AWST 6:54 PM AWST
Astronomical Twilight 5:12 AM AWST 7:22 PM AWST
Moon 6:13 AM AWST (4/10) 5:47 PM AWST (4/10)
Length of Visible Light 12h 16m
Length of Day
11h 27m
Waning Crescent, 0% of the Moon is Illuminated
Apr 10
Waning Crescent
Apr 10
New
Apr 18
First Quarter
Apr 26
Full
May 2
Last Quarter

Hourly Weather History & Observations

Time (AWST) Temp. Heat Index Dew Point Humidity Pressure Visibility Wind Dir Wind Speed Gust Speed Precip Events Conditions
12:00 AM 72 °F - 63 °F 67% 29.97 in 12 mi SSW 6.9 mph - -   Partly Cloudy
12:00 AM 71.6 °F - 62.6 °F 73% 29.95 in - SSW 6.9 mph - N/A   Clear
12:30 AM 69.8 °F - 62.6 °F 78% 29.95 in - SSE 5.8 mph - N/A   Clear
1:00 AM 68.0 °F - 62.6 °F 83% 29.95 in - SE 4.6 mph - N/A   Clear
1:30 AM 68.0 °F - 62.6 °F 83% 29.95 in - NNE 5.8 mph - N/A   Clear
2:00 AM 67 °F - 62 °F 77% 29.96 in - NNE 4.6 mph - -  
2:00 AM 66.2 °F - 60.8 °F 83% 29.95 in - NNE 4.6 mph - N/A   Clear
2:30 AM 66.2 °F - 60.8 °F 83% 29.95 in - Calm Calm - N/A   Clear
3:00 AM 64 °F - 61 °F 86% 29.96 in 12 mi NNW 6.9 mph - -   Partly Cloudy
3:00 AM 64.4 °F - 60.8 °F 88% 29.95 in - NNW 6.9 mph - N/A   Clear
3:30 AM 66.2 °F - 60.8 °F 83% 29.95 in - North 5.8 mph - N/A   Clear
4:00 AM 64.4 °F - 59.0 °F 83% 29.95 in - NNE 5.8 mph - N/A   Clear
4:30 AM 64.4 °F - 60.8 °F 88% 29.92 in - North 5.8 mph - N/A   Clear
5:00 AM 68 °F - 56 °F 56% 29.94 in - NNW 6.9 mph - -  
5:00 AM 68.0 °F - 55.4 °F 64% 29.95 in - NNW 6.9 mph - N/A   Clear
5:30 AM 71.6 °F - 53.6 °F 53% 29.95 in - NE 8.1 mph - N/A   Clear
6:00 AM 70 °F - 56 °F 52% 29.95 in 16 mi East 9.2 mph - -   Partly Cloudy
6:00 AM 69.8 °F - 57.2 °F 64% 29.95 in - East 9.2 mph - N/A   Clear
6:30 AM 68.0 °F - 60.8 °F 78% 29.95 in - South 5.8 mph - N/A   Clear
7:00 AM 69.8 °F - 62.6 °F 78% 29.95 in - SW 5.8 mph - N/A   Clear
7:30 AM 69.8 °F - 62.6 °F 78% 29.95 in - SE 5.8 mph - N/A   Clear
8:00 AM 74 °F - 61 °F 55% 29.97 in - SSE 3.5 mph - -  
8:00 AM 73.4 °F - 60.8 °F 65% 29.95 in - SSE 3.5 mph - N/A   Clear
8:30 AM 75.2 °F - 60.8 °F 61% 29.95 in - SE 5.8 mph - N/A   Clear
9:00 AM 79 °F - 58 °F 38% 29.97 in 19 mi ESE 3.5 mph - -   Partly Cloudy
9:00 AM 78.8 °F - 57.2 °F 47% 29.95 in - ESE 3.5 mph - N/A   Clear
9:30 AM 80.6 °F 80.8 °F 57.2 °F 45% 29.95 in - East 4.6 mph - N/A   Clear
10:00 AM 82.4 °F 82.0 °F 57.2 °F 42% 29.98 in - SE 2.3 mph - N/A   Clear
10:30 AM 82.4 °F 82.0 °F 57.2 °F 42% 29.95 in - East 3.5 mph - N/A   Clear
11:00 AM 83 °F - 57 °F 31% 29.97 in - North 3.5 mph - -  
11:00 AM 82.4 °F 82.0 °F 57.2 °F 42% 29.95 in - North 3.5 mph - N/A   Clear
11:30 AM 86.0 °F - 51.8 °F 31% 29.95 in - North 6.9 mph - N/A   Clear
12:00 PM 86 °F - 52 °F 21% 29.96 in 16 mi North 6.9 mph - -   Mostly Cloudy
12:00 PM 86.0 °F - 51.8 °F 31% 29.95 in - North 6.9 mph - N/A   Clear
12:30 PM 86.0 °F - 51.8 °F 31% 29.92 in - WSW 3.5 mph - N/A   Clear
1:00 PM 87.8 °F - 50.0 °F 27% 29.92 in - East 10.4 mph - N/A   Clear
1:30 PM 91.4 °F - 48.2 °F 23% 29.89 in - ESE 9.2 mph - N/A   Clear
2:00 PM 95 °F - 46 °F 11% 29.90 in - SE 8.1 mph - -  
2:00 PM 95.0 °F - 46.4 °F 19% 29.89 in - SE 8.1 mph - N/A   Clear
2:30 PM 96.8 °F - 44.6 °F 17% 29.89 in - SSE 8.1 mph - N/A   Clear
3:00 PM 96 °F - 43 °F 9% 29.89 in 16 mi West 6.9 mph - -   Partly Cloudy
3:00 PM 95.0 °F - 42.8 °F 16% 29.89 in - West 6.9 mph - N/A   Clear
3:30 PM 93.2 °F - 51.8 °F 24% 29.89 in - WSW 11.5 mph - N/A   Clear
4:00 PM 87.8 °F 86.5 °F 57.2 °F 35% 29.89 in - WSW 15.0 mph - N/A   Clear
4:30 PM 84.2 °F 83.8 °F 59.0 °F 42% 29.89 in - West 11.5 mph - N/A   Clear
5:00 PM 85 °F - 60 °F 33% 29.89 in - SSW 9.2 mph - -  
5:00 PM 84.2 °F 84.4 °F 60.8 °F 45% 29.89 in - SSW 9.2 mph - N/A   Clear
5:30 PM 84.2 °F 83.8 °F 59.0 °F 42% 29.89 in - SW 10.4 mph - N/A   Clear
6:00 PM 83 °F - 60 °F 35% 29.90 in 12 mi SSW 8.1 mph - -   Partly Cloudy
6:00 PM 82.4 °F 82.5 °F 59.0 °F 45% 29.89 in - SSW 8.1 mph - N/A   Clear
6:30 PM 82.4 °F 82.9 °F 60.8 °F 48% 29.89 in - SW 6.9 mph - N/A   Clear
7:00 PM 78.8 °F - 59.0 °F 51% 29.92 in - SSW 5.8 mph - N/A   Clear
7:30 PM 77.0 °F - 60.8 °F 57% 29.92 in - SE 5.8 mph - N/A   Clear
8:00 PM 75 °F - 60 °F 51% 29.93 in - Calm Calm - -  
8:00 PM 75.2 °F - 60.8 °F 61% 29.92 in - Calm Calm - N/A   Clear
8:30 PM 73.4 °F - 60.8 °F 65% 29.92 in - SSW 2.3 mph - N/A   Clear
9:00 PM 71 °F - 59 °F 58% 29.94 in 16 mi West 4.6 mph - -   Partly Cloudy
9:00 PM 71.6 °F - 59.0 °F 64% 29.92 in - West 4.6 mph - N/A   Clear
9:30 PM 75.2 °F - 60.8 °F 61% 29.92 in - SSW 5.8 mph - N/A   Clear
10:00 PM 71.6 °F - 60.8 °F 69% 29.92 in - SSW 4.6 mph - N/A   Clear
10:30 PM 71.6 °F - 60.8 °F 69% 29.92 in - SW 3.5 mph - N/A   Clear
11:00 PM 76 °F - 60 °F 49% 29.94 in - West 8.1 mph - -  
11:00 PM 77.0 °F - 60.8 °F 57% 29.92 in - West 8.1 mph - N/A   Clear
11:30 PM 73.4 °F - 62.6 °F 69% 29.92 in 6.2 mi East 6.9 mph - N/A   Mostly Cloudy